GRACE-FO 1 (43476 NORAD) Tracking and Keplerian Element Data

This shows tracking and keplerian element data for the satellite.

Feedback or suggestion? Click here.




ElementValue
Catalog43476
NameGRACE-FO 1
Epoch Orbit438
Epoch Day171.63417451
Epoch Year2018
RAAN235.2443
Inclination88.9937
Eccentricity0.001839
Argument of Perigee160.2702
Mean Anonmoly199.9261
Mean Motion15.23702567
Decay Rate2.64E-06
L11 43476U 18047A 18171.63417451 .00000264 00000-0 96522-5 0 9994
L22 43476 88.9937 235.2443 0018390 160.2702 199.9261 15.23702567 4382

Live tracking and technical data element details for GRACE-FO 1 (NORAD 43476). GRACE-FO 1 can be tracked NOW for your location showing map with azimuth and elevation plus other details from your city location.

Track the satellite on the map from your city or location and see movement details for azimuth, elevation, latitude, longitude, range, height, and movement on the map or in text.







IsCatalogInMostPopularTable: catalog: 43476, numindb: 44
Update: records affected: 1



GetName: 43476 GRACE-FO 1

Hit Count: updated at: Tue, 20 Nov 2018 07:34:02 GMT